{"data":{"norad_id":28420,"epoch":"2026-09-20T00:15:04.652928Z","epoch_age_seconds":56969,"freshness":"FRESH","line1":"1 28420U 04037B   26263.01047052  .00000089  00000+0  55137-3 0  9998","line2":"2 28420  82.4799 269.7232 0014816  73.4494 286.8214 12.45324811999356","mean_motion":12.45324811,"eccentricity":0.0014816,"inclination_deg":82.4799,"raan_deg":269.7232,"arg_perigee_deg":73.4494,"mean_anomaly_deg":286.8214,"bstar":0.00055137,"rev_number":99935,"period_min":115.63248296994,"perigee_km":1472.4624517773,"apogee_km":1495.759865521,"semimajor_km":7862.2481586491,"source":"CELESTRAK","updated_at":"2026-09-20T09:00:13.600406Z"}}